Farmville, Virginia, United States (23901)
Lat: 37.30N, Lon: 78.39W
Wx Zone: VAZ060
Local Info
Past Weather Observations for Yesterday

NOTE: This archive is for the closest National Weather Service station to Farmville. Information may differ from the station used for current weather conditions.

Click here for Long-term Archive

Time Weather Temperature Dewpoint Humidity Pressure Winds Precip Visibility
23:55
Overcast
Rain
70°F / 21°C 68°F / 20°C 94% 30.06 in
(1018 mb)
NE 6.9 mph
(NE 11 kph)
- 2SM
23:35
Overcast
Fog And Mist
70°F / 21°C 68°F / 20°C 94% 30.06 in
(1018 mb)
E 3.5 mph
(E 6 kph)
- 2SM
23:15
Overcast
Fog And Mist
70°F / 21°C 68°F / 20°C 94% 30.06 in
(1018 mb)
ENE 8.1 mph
(ENE 13 kph)
- 2 1/2SM
22:55
Overcast
Drizzle
70°F / 21°C 68°F / 20°C 94% 30.06 in
(1018 mb)
E 8.1 mph
(E 13 kph)
- 2 1/2SM
22:35
Overcast
Drizzle
70°F / 21°C 68°F / 20°C 94% 30.06 in
(1018 mb)
ENE 6.9 mph
(ENE 11 kph)
- 2 1/2SM
22:15
Overcast
Drizzle
70°F / 21°C 68°F / 20°C 94% 30.06 in
(1018 mb)
E 5.8 mph
(E 9 kph)
- 2 1/2SM
21:55
Overcast
Rain
70°F / 21°C 68°F / 20°C 94% 30.06 in
(1018 mb)
E 5.8 mph
(E 9 kph)
- 3SM
21:35
Overcast
Drizzle
70°F / 21°C 68°F / 20°C 94% 30.09 in
(1019 mb)
E 6.9 mph
(E 11 kph)
- 3SM
21:15
Overcast
70°F / 21°C 68°F / 20°C 94% 30.06 in
(1018 mb)
E 9.2 mph
(E 15 kph)
- 4SM
20:55
Overcast
Drizzle
70°F / 21°C 68°F / 20°C 94% 30.09 in
(1019 mb)
E 8.1 mph
(E 13 kph)
- 3SM
20:35
Overcast
Drizzle
70°F / 21°C 68°F / 20°C 94% 30.06 in
(1018 mb)
ENE 11.5 mph
(ENE 19 kph)
- 4SM
20:15
Overcast
Light Rain
70°F / 21°C 70°F / 21°C 100% 30.06 in
(1018 mb)
E 10.4 mph
(E 17 kph)
- 3SM
19:55
Overcast
Rain
72°F / 22°C 70°F / 21°C 94% 30.06 in
(1018 mb)
ENE 10.4 mph
(ENE 17 kph)
- 3SM
19:35
Overcast
Light Rain
72°F / 22°C 70°F / 21°C 94% 30.06 in
(1018 mb)
ENE 11.5 mph
(ENE 19 kph)
- 3SM
19:15
Overcast
Drizzle
72°F / 22°C 70°F / 21°C 94% 30.06 in
(1018 mb)
ENE 9.2 mph
(ENE 15 kph)
- 3SM
18:55
Overcast
Drizzle
73°F / 23°C 70°F / 21°C 89% 30.06 in
(1018 mb)
ENE 9.2 mph
(ENE 15 kph)
- 4SM
18:35
Overcast
Drizzle
73°F / 23°C 70°F / 21°C 89% 30.04 in
(1017 mb)
E 10.4 mph
(E 17 kph)
- 4SM
18:15
Overcast
Drizzle
73°F / 23°C 70°F / 21°C 89% 30.04 in
(1017 mb)
E 10.4 mph
(E 17 kph)
- 4SM
17:55
Overcast
Drizzle
73°F / 23°C 70°F / 21°C 89% 30.04 in
(1017 mb)
E 11.5 mph
(E 19 kph)
- 4SM
17:35
Overcast
Drizzle
75°F / 24°C 72°F / 22°C 89% 30.04 in
(1017 mb)
ENE 8.1 mph
(ENE 13 kph)
- 3SM
17:15
Overcast
Rain
75°F / 24°C 72°F / 22°C 89% 30.04 in
(1017 mb)
ENE 8.1 mph
(ENE 13 kph)
- 3SM
16:55
Overcast
Hazy
77°F / 25°C 72°F / 22°C 83% 30.04 in
(1017 mb)
E 10.4 mph
(E 17 kph)
- 1 1/2SM
16:35
Overcast
Hazy
77°F / 25°C 72°F / 22°C 83% 30.04 in
(1017 mb)
ENE 9.2 mph
(ENE 15 kph)
- 1 1/4SM
16:15
Overcast
Hazy
79°F / 26°C 72°F / 22°C 79% 30.01 in
(1016 mb)
E 5.8 mph
(E 9 kph)
- 2SM
15:55
Mostly Cloudy
Hazy
79°F / 26°C 72°F / 22°C 79% 30.01 in
(1016 mb)
ESE 8.1 mph
(ESE 13 kph)
- 2 1/2SM
15:35
Overcast
Hazy
81°F / 27°C 72°F / 22°C 74% 30.01 in
(1016 mb)
E 9.2 mph
(E 15 kph)
- 2 1/2SM
15:15
Mostly Cloudy
Hazy
81°F / 27°C 72°F / 22°C 74% 30.01 in
(1016 mb)
E 6.9 mph
(E 11 kph)
- 1 1/2SM
14:55
Mostly Cloudy
Hazy
79°F / 26°C 70°F / 21°C 74% 30.01 in
(1016 mb)
E 8.1 mph
(E 13 kph)
- 1 1/2SM
14:35
Mostly Cloudy
Hazy
81°F / 27°C 70°F / 21°C 70% 30.01 in
(1016 mb)
E 6.9 mph
(E 11 kph)
- 2SM
14:15
Mostly Cloudy
Hazy
81°F / 27°C 70°F / 21°C 70% 30.01 in
(1016 mb)
E 6.9 mph
(E 11 kph)
- 2SM
13:55
Mostly Cloudy
81°F / 27°C 70°F / 21°C 70% 30.04 in
(1017 mb)
ESE 5.8 mph
(ESE 9 kph)
- 7SM
13:35
Overcast
Hazy
81°F / 27°C 68°F / 20°C 66% 30.04 in
(1017 mb)
SE 5.8 mph
(SE 9 kph)
- 1SM
13:15
Overcast
Hazy
81°F / 27°C 70°F / 21°C 70% 30.04 in
(1017 mb)
E 5.8 mph
(E 9 kph)
- 4SM
12:55
Overcast
Hazy
79°F / 26°C 70°F / 21°C 74% 30.06 in
(1018 mb)
ESE 4.6 mph
(ESE 7 kph)
- 1 1/4SM
12:35
Mostly Cloudy
Hazy
79°F / 26°C 70°F / 21°C 74% 30.06 in
(1018 mb)
SE 8.1 mph
(SE 13 kph)
- 2 1/2SM
12:15
Mostly Cloudy
Hazy
79°F / 26°C 70°F / 21°C 74% 30.06 in
(1018 mb)
E 9.2 mph
(E 15 kph)
- 2 1/2SM
11:55
Overcast
Hazy
79°F / 26°C 70°F / 21°C 74% 30.06 in
(1018 mb)
ESE 6.9 mph
(ESE 11 kph)
- 3SM
11:35
Overcast
Hazy
77°F / 25°C 70°F / 21°C 79% 30.06 in
(1018 mb)
ENE 8.1 mph
(ENE 13 kph)
- 1 3/4SM
11:15
Overcast
Hazy
77°F / 25°C 70°F / 21°C 79% 30.06 in
(1018 mb)
E 6.9 mph
(E 11 kph)
- 1 1/4SM
10:55
Overcast
Hazy
75°F / 24°C 70°F / 21°C 83% 30.06 in
(1018 mb)
ENE 6.9 mph
(ENE 11 kph)
- 1 1/4SM
10:35
Overcast
Fog And Mist
75°F / 24°C 70°F / 21°C 83% 30.06 in
(1018 mb)
E 5.8 mph
(E 9 kph)
- 1SM
10:15
Overcast
Fog And Mist
75°F / 24°C 72°F / 22°C 89% 30.06 in
(1018 mb)
ENE 5.8 mph
(ENE 9 kph)
- 1 1/4SM
09:55
Overcast
Fog And Mist
73°F / 23°C 70°F / 21°C 89% 30.06 in
(1018 mb)
ENE 5.8 mph
(ENE 9 kph)
- 1 1/4SM
09:35
Overcast
Fog And Mist
72°F / 22°C 68°F / 20°C 88% 30.06 in
(1018 mb)
ENE 4.6 mph
(ENE 7 kph)
- 2 1/2SM
09:15
Overcast
Fog And Mist
72°F / 22°C 68°F / 20°C 88% 30.06 in
(1018 mb)
ENE 6.9 mph
(ENE 11 kph)
- 2SM
08:55
Overcast
Fog And Mist
72°F / 22°C 68°F / 20°C 88% 30.06 in
(1018 mb)
ENE 6.9 mph
(ENE 11 kph)
- 1 1/4SM
08:35
Partly Cloudy
70°F / 21°C 68°F / 20°C 94% 30.04 in
(1017 mb)
NE 4.6 mph
(NE 7 kph)
- 7SM
08:15
Partly Cloudy
68°F / 20°C 68°F / 20°C 100% 30.04 in
(1017 mb)
NE 4.6 mph
(NE 7 kph)
- 7SM
07:55
Partly Cloudy
68°F / 20°C 68°F / 20°C 100% 30.04 in
(1017 mb)
NE 4.6 mph
(NE 7 kph)
- 7SM
07:35
Partly Cloudy
68°F / 20°C 66°F / 19°C 94% 30.04 in
(1017 mb)
N 4.6 mph
(N 7 kph)
- 10SM
07:15
Partly Cloudy
Fog And Mist
68°F / 20°C 66°F / 19°C 94% 30.04 in
(1017 mb)
Calm - 1 1/2SM
06:55
Partly Cloudy
Fog And Mist
68°F / 20°C 66°F / 19°C 94% 30.04 in
(1017 mb)
Calm - 3SM
05:35
Partly Cloudy
68°F / 20°C 66°F / 19°C 94% 30.01 in
(1016 mb)
Calm - 7SM
05:15
Partly Cloudy
Fog And Mist
68°F / 20°C 68°F / 20°C 100% 30.01 in
(1016 mb)
Calm - 5SM
04:55
Partly Cloudy
68°F / 20°C 68°F / 20°C 100% 29.98 in
(1015 mb)
Calm - 7SM
04:35
Mostly Cloudy
68°F / 20°C 68°F / 20°C 100% 29.98 in
(1015 mb)
Calm - 7SM
04:15
Mostly Cloudy
68°F / 20°C 68°F / 20°C 100% 29.98 in
(1015 mb)
Calm - 7SM
03:55
Overcast
Fog And Mist
68°F / 20°C 68°F / 20°C 100% 29.98 in
(1015 mb)
NE 4.6 mph
(NE 7 kph)
0.01 in
(0.25 mm)
2 1/2SM
03:35
Partly Cloudy
Thunder Storms
68°F / 20°C 68°F / 20°C 100% 29.95 in
(1014 mb)
E 4.6 mph
(E 7 kph)
0.01 in
(0.25 mm)
5SM
03:15
Mostly Cloudy
Light Rain
68°F / 20°C 68°F / 20°C 100% 29.95 in
(1014 mb)
N 3.5 mph
(N 6 kph)
0.01 in
(0.25 mm)
10SM
02:55
Mostly Cloudy
68°F / 20°C 68°F / 20°C 100% 29.95 in
(1014 mb)
NNE 5.8 mph
(NNE 9 kph)
0.03 in
(0.76 mm)
7SM
02:35
Overcast
Light Rain
68°F / 20°C 68°F / 20°C 100% 29.98 in
(1015 mb)
Calm 0.03 in
(0.76 mm)
7SM
02:15
Mostly Cloudy
Rain
68°F / 20°C 68°F / 20°C 100% 29.98 in
(1015 mb)
Calm 0.02 in
(0.51 mm)
7SM
01:55
Mostly Cloudy
Light Rain
68°F / 20°C 68°F / 20°C 100% 29.98 in
(1015 mb)
ENE 3.5 mph
(ENE 6 kph)
0.02 in
(0.51 mm)
7SM
01:35
Mostly Cloudy
Light Rain
68°F / 20°C 68°F / 20°C 100% 29.98 in
(1015 mb)
Calm 0.01 in
(0.25 mm)
3SM
01:15
Partly Cloudy
Light Rain
68°F / 20°C 68°F / 20°C 100% 29.98 in
(1015 mb)
NW 3.5 mph
(NW 6 kph)
0.01 in
(0.25 mm)
7SM
00:55
Mostly Cloudy
Light Rain
68°F / 20°C 68°F / 20°C 100% 29.98 in
(1015 mb)
Calm 0.04 in
(1.02 mm)
5SM
00:35
Overcast
Light Rain
70°F / 21°C 68°F / 20°C 94% 29.98 in
(1015 mb)
Calm 0.04 in
(1.02 mm)
7SM
00:15
Overcast
Light Rain
70°F / 21°C 68°F / 20°C 94% 29.98 in
(1015 mb)
N 3.5 mph
(N 6 kph)
0.02 in
(0.51 mm)
7SM
Time Weather Temperature Dewpoint Humidity Pressure Winds Precip Visibility


Weather for websites

WeatherForYou.com, LLC is not responsible for any damages or problems caused by this service. Current weather conditions are obtained from the closest station including government and personal stations which may have varying degrees of accuracy. Weather forecasts are derived from the NOAA NDFD. Like all things, this site belongs to Jesus Christ... He just trusts us to maintain it. If you have any questions or comments email webmaster@weatherforyou.com

Copyright © 2016, WeatherForYou.com LLC. All rights reserved.